Terminal Aerodrome Forecast
Issued by NWS Greer, SC

Home | Current Version | Previous Version | Text Only | Print | Product List | Glossary On
Versions: 1 2 3 4 5 6 7 8 9 10 11 12 13 14 15 16 17 18 19 20 21 22 23 24 25 26 27 28 29 30 31 32 33 34 35 36 37 38 39 40 41 42 43 44 45 46 47 48 49 50
000
FTUS42 KGSP 041724
TAFCLT
TAF
KCLT 041724Z 0418/0518 24013G22KT P6SM VCSH SCT050 BKN100
      TEMPO 0419/0423 -SHRA BKN050
     FM050100 24005KT P6SM FEW050 BKN100
     FM050900 23003KT P6SM FEW020 BKN080
     FM051500 22007KT P6SM FEW050 BKN100=

USA.gov is the U.S. government's official web portal to all federal, state and local government web resources and services.